www.pogodaiklimat.ru

Погода и климат >> Архив погоды >> Великобритания >> Аэропорт Гернси


ПОГОДА в Аэропорту Гернси

  • Прогноз погоды в Аэропорту Гернси
  • Монитор погоды в Аэропорту Гернси

АРХИВ ПОГОДЫ в Аэропорту Гернси

Время (UTC), дата Ветер
(напр.,м/с)
 
Видим.   Явления Облачность Т
(С)
Тd
(С)
f
(%)
Тe
(С)
Тes
(С)
Комфортность P
(гПа)
Po
(гПа)
Тmin
(С)
Tmax
(С)
R
(мм)
R24
(мм)
S
(см)
22 11.06 С 4 40 км 9/5 240 м
[Cu med, cong Ac cast Ci sp]
+11.8 +10.6 92 +9 +9 1012.1 999.9
23 11.06 С 6 35 км 5/3 180 м
[Cu med, cong Ci sp]
+11.8 +10.7 93 +9 +9 1011.7 999.5
00 12.06 С 6 45 км 9/8 300 м
[Cu Sc Ci sp]
+11.8 +10.7 93 +9 +9 1011.4 999.2
01 12.06 СВ 5 35 км в посл. час ливневой дождь 9/9 180 м
[St]
+11.6 +10.8 95 +9 +9 1010.9 998.7
02 12.06 С 5 35 км 5/4 180 м
[Cu med, cong Ac trans Ci fib]
+11.4 +10.6 95 +9 +9 1010.7 998.5
03 12.06 С 4 35 км {ливн. осадки} 8/3 180 м
[Cu med, cong Ac trans Ci sp]
+11.2 +10.3 94 +9 +9 1010.1 997.9
04 12.06 С 5 30 км 9/6 150 м
[St Ac trans]
+11.0 +10.2 95 +8 +8 1009.6 997.4
05 12.06 С 5 30 км 8/4 150 м
[St Ac cast Ci fib]
+11.2 +10.3 94 +8 +9 1009.7 997.5
06 12.06 С 5 25 км осадки на расстоянии {ливн. осадки} 9/6 180 м
[Sc Ac cast Ci ing]
+11.5 +10.4 93 +9 +9 1009.9 997.7 +11.0 0.0
07 12.06 С 5 25 км в посл. час ливневой дождь 9/8 180 м
[Sc Ac cast]
+11.6 +10.6 94 +9 +9 1009.8 997.6
08 12.06 С 5 20 км в посл. час ливневой дождь 9/9 150 м
[Cb cap]
+11.6 +10.9 95 +9 +9 1009.5 997.3
09 12.06 С 5 15 км слаб. ливневой дождь 9/9 150 м
[Cb cap]
+11.8 +10.9 94 +9 +10 1009.3 997.1
10 12.06 С 5 25 км в посл. час ливневой дождь 9/9 150 м
[Cb cap]
+12.0 +11.2 95 +10 +10 1009.3 997.2
11 12.06 С 5 15 км в посл. час ливневой дождь 9/8 120 м
[Cu Sc Ci sp]
+12.5 +11.6 94 +10 +12 1009.2 997.1
12 12.06 С 5 25 км {ливн. осадки} 9/8 120 м
[Cu Sc Ci sp]
+13.3 +11.7 90 +11 +13 1009.1 997.0 0.6
13 12.06 С 5 20 км 9/8 180 м
[Cu Sc Ac trans]
+13.5 +11.4 87 +11 +13 1009.4 997.3
14 12.06 С 5 15 км в посл. час ливневой дождь 9/9 150 м
[Cu Sc]
+11.9 +11.1 95 +9 +10 1009.4 997.3
15 12.06 С 5 20 км {ливн. осадки} 9/9 210 м
[Cu Sc]
+12.3 +11.2 93 +10 +11 1009.4 997.3
16 12.06 С 5 30 км 9/6 210 м
[Cu Sc Ac trans]
+13.5 +11.5 88 +12 +13 1009.5 997.4
17 12.06 С 5 30 км 9/4 330 м
[Cu Sc Ac trans Ci fib]
+13.4 +10.9 85 +12 +13 1009.0 996.9
18 12.06 С 5 40 км {ливн. осадки} 9/1 330 м
[Cu Sc Ac trans Ci fib]
+13.8 +10.6 81 +12 +13 1009.1 997.0 +14.2 2
19 12.06 СЗ 2 40 км осадки на расстоянии 9/4 360 м
[Cu Sc Ac trans Ci fib]
+12.8 +10.4 85 +12 +12 1009.3 997.2
20 12.06 СЗ 3 40 км 9/4 180 м
[Cu Sc Ac cuf Ci fib]
+11.6 +10.5 93 +10 +10 1009.4 997.2
21 12.06 СЗ 2 40 км 9/8 180 м
[Cu Sc Ci fib]
+11.0 +10.2 95 +10 +10 1009.8 997.6
22 12.06 З 2 40 км 9/3 360 м
[Cu Sc Ac trans Ci fib]
+10.5 +9.7 95 +9 +9 1009.9 997.7
23 12.06 З 4 45 км 9/3 240 м
[Cu Sc Ac trans Ci fib]
+10.6 +10.0 96 +8 +8 1009.9 997.7
00 13.06 З 3 35 км в посл. час ливневой дождь 9/9 210 м
[Sc]
+11.1 +10.1 94 +9 +9 1009.6 997.4 0.0
01 13.06 З 4 45 км 5/4 300 м
[Cu Sc Ac trans Ci sp]
+10.7 +9.5 92 +8 +8 1009.1 996.9
02 13.06 ЮЗ 4 45 км 4/4 300 м
[Cu Sc Ac trans Ci fib]
+10.6 +9.0 90 +8 +8 1008.6 996.4
03 13.06 ЮЗ 4 50 км 8/1 300 м
[Cu Sc Ac trans Ci sp]
+10.5 +8.4 87 +8 +8 1008.2 996.0
04 13.06 ЮЗ 5 50 км 8/1 300 м
[Cu Sc Ac trans Ci sp]
+10.8 +8.8 87 +8 +8 1007.8 995.6
05 13.06 ЮЗ 5 50 км 8/1 360 м
[Cu Sc Ac trans Ci fib]
+11.0 +8.6 85 +8 +8 1008.0 995.8
06 13.06 ЮЗ 6 45 км 9/1 360 м
[Cu Sc Ac trans Ci sp]
+11.9 +9.3 84 +9 +10 1008.0 995.9 +10.1
07 13.06 ЮЗ 6 45 км 9/5 360 м
[Cu Sc Ac trans Ci sp]
+12.2 +8.9 80 +9 +10 1008.1 996.0
08 13.06 ЮЗ 6 50 км 9/4 360 м
[Cu Sc Ac trans Ci sp]
+12.4 +9.0 80 +10 +11 1008.3 996.2
09 13.06 ЮЗ 7 45 км 9/5 240 м
[Cu Sc Ac trans Ci sp]
+12.4 +9.6 83 +9 +10 1008.5 996.4
10 13.06 ЮЗ 8 45 км 9/4 240 м
[Cu Sc Ac As Ci sp]
+13.2 +10.7 85 +10 +11 1008.6 996.5
11 13.06 ЮЗ 8 45 км 9/4 300 м
[Cu Sc Ac As Ci sp]
+13.8 +10.4 80 +11 +12 1008.6 996.5
12 13.06 ЮЗ 10
{13}
45 км 9/4 360 м
[Cu Sc Ac trans Ci sp]
+14.0 +10.1 77 +11 +12 1008.8 996.7
13 13.06 ЮЗ 8 45 км 9/8 360 м
[Cu Sc Ci sp]
+13.8 +9.7 76 +11 +12 1009.1 997.0
14 13.06 ЮЗ 8 40 км 9/9 400 м
[Cu Sc Ci sp]
+14.1 +9.8 75 +12 +12 1009.1 997.0
15 13.06 З 8 45 км 9/6 420 м
[Cu Sc Ac trans Ci sp]
+14.1 +10.2 77 +12 +12 1009.2 997.1
16 13.06 З 8 40 км 9/8 420 м
[Cu Sc Ci sp]
+13.6 +10.3 80 +11 +11 1009.3 997.2
17 13.06 З 7 35 км 9/9 240 м
[Cu Sc Ci sp]
+13.3 +10.9 85 +11 +11 1009.4 997.3
18 13.06 З 7 35 км 9/9 240 м
[Cu Sc Ci sp]
+13.0 +10.8 86 +10 +10 1009.6 997.5 +14.7
19 13.06 З 6 30 км 9/9 240 м
[Cu Sc Ci sp]
+12.9 +10.8 87 +10 +10 1010.0 997.9
20 13.06 ЮЗ 5 35 км 9/9 450 м
[Cu Sc Ci sp]
+12.6 +10.9 89 +10 +10 1010.2 998.1
21 13.06 З 6 35 км 9/9 300 м
[Cu Sc Ci sp]
+12.5 +10.9 90 +10 +10 1010.5 998.4
22 13.06 З 6 40 км 9/9 300 м
[Cu Sc Ci sp]
+12.4 +10.9 91 +10 +10 1010.8 998.7
23 13.06 ЮЗ 5 40 км 9/9 300 м
[Cu Sc]
+12.5 +11.4 93 +10 +10 1010.9 998.8
00 14.06 ЮЗ 4 30 км в посл. час ливневой дождь 9/4 570 м
[Cu Sc Ac trans]
+12.8 +11.9 94 +11 +11 1010.7 998.6 0.0
01 14.06 ЮЗ 6 15 км слаб. ливневой дождь 9/9 150 м
[Sc]
+12.1 +11.2 94 +9 +9 1010.5 998.3
02 14.06 ЮЗ 6 30 км в посл. час ливневой дождь 9/9 300 м
[Cu Sc]
+12.3 +10.7 90 +10 +10 1010.4 998.3
03 14.06 ЮЗ 6 40 км {ливн. осадки} 9/9 300 м
[Cu Sc]
+12.1 +10.8 92 +9 +9 1010.1 998.0
04 14.06 ЮЗ 6 40 км 9/9 300 м
[Cu Sc]
+12.3 +10.9 91 +9 +9 1010.3 998.2
05 14.06 Ю 6 35 км слаб. ливневой дождь 9/9 240 м
[Cu Sc]
+12.2 +10.9 92 +9 +9 1010.4 998.3
06 14.06 Ю 6 40 км в посл. час ливневой дождь 9/9 240 м
[Cu Sc]
+12.4 +11.2 92 +10 +10 1010.8 998.7 +12.0 0.4
07 14.06 ЮЗ 6 28 км 9/9 240 м
[St]
+12.7 +11.1 90 +10 +10 1011.0 998.9
08 14.06 ЮЗ 6 35 км 9/9 180 м
[St]
+13.3 +11.6 89 +11 +11 1011.3 999.2
09 14.06 ЮЗ 6 15 км в посл. час ливневой дождь 9/9 90 м
[Cu Sc]
+12.7 +11.6 93 +10 +11 1011.8 999.7
10 14.06 ЮЗ 7 35 км 8/8 300 м
[Cu Sc]
+14.6 +12.3 86 +13 +13 1012.1 1000.0
11 14.06 ЮЗ 6 40 км 1/1 360 м
[Cu Sc Ci fib]
+14.9 +11.1 78 +13 +20 1012.2 1000.1
12 14.06 ЮЗ 7 40 км {ливн. осадки} 5/5 450 м
[Cu Sc Ci fib]
+16.2 +10.9 71 +15 +18 1011.9 999.9 0.4
13 14.06 ЮЗ 6 40 км 5/5 450 м
[Cu Sc Ci fib]
+16.0 +11.2 73 +15 +19 1012.3 1000.3
14 14.06 ЮЗ 5 40 км 9/9 450 м
[Cu Sc]
+14.7 +10.9 78 +13 +14 1012.5 1000.4
15 14.06 ЮЗ 5 45 км в посл. час ливневой дождь 9/9 540 м
[Cu Sc]
+14.6 +10.1 74 +13 +14 1012.3 1000.2
16 14.06 ЮЗ 4 45 км 9/9 540 м
[Cu Sc]
+14.5 +10.2 75 +13 +14 1012.2 1000.1
17 14.06 ЮЗ 4 45 км 9/9 540 м
[Cu Sc]
+14.1 +9.9 76 +13 +13 1012.1 1000.0
18 14.06 ЮЗ 3 45 км {ливн. осадки} 9/9 540 м
[Cu Sc]
+14.0 +10.5 79 +13 +13 1012.3 1000.2 +16.6 0.4
19 14.06 Ю 3 50 км 6/4 1260 м
[Sc Ac trans Ci fib]
+14.1 +10.9 81 +13 +14 1012.2 1000.1
20 14.06 Ю 3 50 км 9/9 240 м
[Sc Ac trans Ci fib]
+13.1 +11.1 88 +12 +12 1012.6 1000.5
21 14.06 Ю 3 40 км в посл. час ливневой дождь 9/9 300 м
[Cu Sc Ci fib]
+12.8 +11.2 90 +12 +12 1013.0 1000.8
22 14.06 Ю 3 40 км 9/1 360 м
[Cu Sc Ac trans]
+12.6 +11.1 91 +11 +11 1013.1 1000.9
23 14.06 Ю 3 40 км 9/1 360 м
[Cu Sc Ac trans]
+12.8 +11.3 91 +11 +11 1013.0 1000.8
00 15.06 Ю 4 30 км в посл. час ливневой дождь 9/4 570 м
[Cu Sc Ac trans]
+12.9 +11.6 92 +11 +11 1012.8 1000.7 0.0
01 15.06 Ю 3 35 км 9/3 660 м
[Cu Sc Ac trans]
+12.9 +12.0 94 +11 +11 1012.7 1000.6
02 15.06 Ю 5 40 км 3/1 660 м
[Cu Sc Ac trans Ci fib]
+12.2 +10.6 90 +10 +10 1012.5 1000.3
03 15.06 Ю 5 40 км 9/9 240 м
[Sc]
+12.5 +10.9 90 +10 +10 1012.2 1000.0
04 15.06 ЮЗ 6 35 км 8/1 210 м
[St Ac trans Ci]
+12.2 +10.8 91 +9 +9 1012.6 1000.4
05 15.06 Ю 7 25 км осадки на расстоянии 9/1 120 м
[St Ac trans Ci]
+12.7 +11.0 89 +10 +10 1012.3 1000.1
06 15.06 Ю 6 22 км слаб. дождь 9/3 240 м
[Cu Sc Ac trans]
+12.4 +10.8 90 +10 +10 1012.5 1000.3 +12.0 0.0
07 15.06 Ю 7 25 км слаб. дождь 9/6 240 м
[Cu Sc Ac As]
+13.1 +11.6 91 +10 +11 1012.7 1000.6
08 15.06 Ю 6 12 км слаб. дождь 9/9 240 м
[Sc]
+12.8 +11.5 92 +10 +10 1013.1 1000.9
09 15.06 Ю 6 12 км слаб. дождь 9/9 300 м
[Sc]
+12.8 +11.9 94 +10 +11 1013.3 1001.1
10 15.06 Ю 6 20 км в посл. час дождь 9/9 360 м
[Cu Sc]
+13.7 +11.9 89 +12 +12 1013.5 1001.4
11 15.06 Ю 6 25 км 9/8 480 м
[Cu Sc Ac trans]
+14.7 +12.5 87 +13 +14 1013.5 1001.4
12 15.06 Ю 5 20 км слаб. ливневой дождь 9/9 360 м
[Cu Sc]
+14.1 +12.9 92 +12 +13 1013.9 1001.8 0.4
13 15.06 Ю 5 5000 м ливневой дождь 9/9 90 м
[Cu Sc]
+14.1 +13.1 94 +12 +13 1013.9 1001.8
14 15.06 З 4 15 км слаб. ливневой дождь 10/10 60 м
[Cu Sc]
+13.2 +13.1 99 +11 +11 1014.1 1001.9
15 15.06 З 3 20 км в посл. час ливневой дождь 9/9 360 м
[Cu Sc]
+14.8 +12.3 85 +14 +15 1014.2 1002.1
16 15.06 ЮЗ 4 40 км 5/4 420 м
[Cu Sc Ac trans Ci fib]
+14.8 +12.0 83 +14 +17 1014.5 1002.4
17 15.06 ЮЗ 4 40 км 9/1 420 м
[Cu Sc Ac As Ci ing]
+13.7 +11.9 89 +12 +14 1014.6 1002.5
18 15.06 ЮЗ 4 40 км слаб. дождь 9/1 420 м
[Cu Sc Ac As]
+13.4 +11.7 89 +12 +12 1015.0 1002.8 +15.3 3
19 15.06 ЮЗ 4 30 км слаб. дождь 9/3 420 м
[Cu Sc Ac As]
+12.8 +12.0 95 +11 +11 1015.3 1003.1
20 15.06 ЮЗ 4 35 км в посл. час дождь 8/5 120 м
[Cu Sc Ac trans Ci fib]
+12.6 +12.0 96 +11 +11 1015.4 1003.2
21 15.06 ЮЗ 4 30 км {дождь} 9/9 150 м
[Sc]
+12.4 +11.9 97 +10 +10 1015.8 1003.6
22 15.06 Ю 5 20 км 9/9 60 м
[Sc]
+12.8 +12.6 99 +11 +11 1016.2 1004.0
23 15.06 ЮЗ 6 25 км 9/9 60 м
[Sc]
+12.9 +12.3 96 +10 +10 1016.5 1004.3
00 16.06 ЮЗ 6 25 км {дождь} 9/9 240 м
[Sc]
+13.0 +12.1 94 +11 +11 1016.8 1004.6 0.8
01 16.06 ЮЗ 5 25 км 9/9 300 м
[Sc]
+13.0 +12.3 96 +11 +11 1016.9 1004.7
02 16.06 ЮЗ 5 12 км слаб. ливневой дождь 9/9 120 м
[Frnb]
+12.8 +12.3 97 +10 +10 1016.7 1004.5
03 16.06 ЮЗ 6 15 км в посл. час ливневой дождь 9/9 120 м
[St]
+13.1 +12.5 96 +11 +11 1016.6 1004.4
04 16.06 ЮЗ 5 18 км 9/9 120 м
[St]
+13.1 +12.4 96 +11 +11 1016.7 1004.5
05 16.06 Ю 6 18 км в посл. час ливневой дождь 9/9 270 м
[Sc]
+13.0 +12.7 98 +11 +11 1016.9 1004.7
06 16.06 Ю 6 20 км в посл. час ливневой дождь 9/9 240 м
[Cu Sc]
+13.3 +12.9 97 +11 +11 1017.2 1005.0 +12.4 1
07 16.06 Ю 6 20 км в посл. час ливневой дождь 9/9 150 м
[Cu Sc]
+13.7 +13.2 97 +11 +12 1017.7 1005.5
08 16.06 ЮЗ 7 20 км 9/9 420 м
[Cu Sc]
+14.4 +13.1 92 +12 +12 1018.3 1006.1
09 16.06 ЮЗ 6 30 км {ливн. осадки} 6/5 450 м
[Cu Sc Ac trans Ci sp]
+15.5 +13.8 90 +14 +16 1018.6 1006.5
10 16.06 Ю 7 35 км 3/1 450 м
[Cu Sc Ac trans Ci fib]
+16.1 +13.4 84 +15 +18 1018.9 1006.8
11 16.06 ЮЗ 6 40 км 5/1 450 м
[Cu Sc Ac trans Ci fib]
+17.1 +12.7 75 +16 +21 1019.1 1007.1
12 16.06 Ю 5 35 км {ливн. осадки} 9/9 450 м
[Cu Sc Ci fib]
+16.0 +12.7 81 +15 +16 1019.5 1007.4 0.0
13 16.06 Ю 6 35 км осадки на расстоянии 9/9 450 м
[Cu Sc]
+15.5 +12.3 81 +14 +15 1019.7 1007.6
14 16.06 ЮЗ 7 35 км в посл. час ливневой дождь 9/9 300 м
[Cu Sc]
+15.1 +12.5 84 +13 +14 1019.9 1007.8
15 16.06 ЮЗ 6 35 км {ливн. осадки} 9/9 300 м
[Cu Sc]
+15.6 +12.3 81 +14 +15 1019.5 1007.4
16 16.06 Ю 4 35 км 9/9 600 м
[Cu Sc]
+15.2 +12.5 84 +14 +15 1019.5 1007.4
17 16.06 Ю 4 35 км осадки на расстоянии 9/9 600 м
[Cu Sc]
+15.0 +12.4 84 +14 +14 1019.4 1007.3
18 16.06 Ю 3 40 км {ливн. осадки} 9/9 600 м
[Cu Sc]
+15.0 +12.8 87 +14 +14 1019.4 1007.3 +17.2 0.0
19 16.06 ЮЗ 3 40 км 9/9 600 м
[Cu Sc]
+14.7 +12.6 87 +14 +14 1019.7 1007.5
20 16.06 Ю 2 40 км 9/9 600 м
[Cu Sc]
+14.3 +12.3 88 +14 +14 1019.8 1007.6
21 16.06 Ю 2 40 км 9/9 900 м
[Sc]
+13.8 +12.3 91 +13 +13 1020.1 1007.9
22 16.06 ЮЗ 3 40 км 8/8 900 м
[Sc Ci fib]
+13.4 +11.5 88 +12 +12 1020.1 1007.9
23 16.06 ЮЗ 3 40 км 4/4 1350 м
[Sc]
+12.6 +11.1 91 +11 +11 1019.9 1007.7
00 17.06 ЮЗ 3 40 км 1/1 1350 м
[Sc]
+12.2 +11.0 92 +10 +10 1019.7 1007.4
01 17.06 Ю 4 40 км 1/1 1350 м
[Sc]
+12.1 +11.4 95 +10 +10 1019.6 1007.3
02 17.06 ЮЗ 3 40 км 1/1 1350 м
[Sc]
+12.0 +11.0 94 +10 +10 1019.4 1007.1
03 17.06 ЮЗ 5 40 км 1/1 1350 м
[Sc]
+12.3 +11.3 94 +10 +10 1019.2 1006.9
04 17.06 ЮЗ 5 30 км 1/1 1350 м
[Sc]
+12.2 +11.4 95 +10 +10 1019.1 1006.8
05 17.06 ЮЗ 4 30 км 8/8 120 м
[Sc Ci fib]
+12.5 +11.7 95 +10 +10 1019.4 1007.2
06 17.06 ЮЗ 5 30 км 9/9 150 м
[Sc]
+12.9 +12.0 94 +11 +11 1019.5 1007.3 +11.8
07 17.06 ЮЗ 4 15 км 9/9 150 м
[Sc]
+13.4 +12.2 92 +12 +12 1019.7 1007.5
08 17.06 ЮЗ 5 25 км осадки на расстоянии 8/3 240 м
[Cu Sc Ac trans Ci sp]
+14.2 +12.1 87 +13 +14 1019.7 1007.5
09 17.06 Ю 5 35 км 9/1 240 м
[Cu Sc Ac trans Ci sp]
+14.7 +12.1 84 +13 +16 1019.4 1007.2
10 17.06 Ю 4 35 км 5/1 240 м
[Cu Sc Ac trans Ci sp]
+15.3 +12.2 82 +14 +22 1019.6 1007.5
11 17.06 Ю 4 35 км 4/1 240 м
[Cu Sc Ac trans Ci sp]
+16.2 +11.8 75 +16 +25 1019.3 1007.2
12 17.06 Ю 3 40 км 6/1 240 м
[Cu Sc Ci sp]
+16.2 +11.5 74 +16 +28 опасность
простуды
1019.2 1007.1
13 17.06 ЮВ 3 40 км 8/1 240 м
[Cu Sc Ac trans Ci sp]
+16.4 +11.8 74 +16 +24 1019.1 1007.0
14 17.06 ЮВ 3 40 км 9/1 300 м
[Cu hum Ac trans Ci sp]
+16.8 +9.9 64 +17 +23 1018.7 1006.6
15 17.06 Ю 3 45 км 9/0
[Ac trans Ci sp]
+17.2 +9.4 60 +17 +26 1018.4 1006.4
16 17.06 С 3 45 км 9/0
[Ac cast Ci sp]
+17.0 +10.5 66 +17 +23 1018.2 1006.2
17 17.06 С 2 45 км 8/0
[Ac trans Ci sp]
+16.0 +10.2 68 +16 +20 1017.8 1005.7
18 17.06 С 1 45 км 8/0
[Ac trans Ci fib]
+17.3 +9.9 62 +18 +21 1017.3 1005.3 +17.7
19 17.06 СВ 2 45 км 8/0
[Ac trans Ci fib]
+16.6 +9.9 65 +17 +18 1017.3 1005.3
20 17.06 С 2 45 км 4/0
[Ac trans Ci fib]
+15.2 +10.2 72 +15 +15 1017.3 1005.2
21 17.06 С 2 45 км 8/0
[Ac trans Ci fib]
+13.3 +9.7 79 +13 +13 1017.8 1005.6
22 17.06 СВ 2 45 км 9/0
[Ac trans]
+12.9 +10.1 83 +12 +12 1017.5 1005.3
23 17.06 СВ 2 45 км 9/0
[Ac trans]
+13.0 +9.6 80 +12 +12 1017.1 1004.9
00 18.06 СВ 2 45 км 9/0
[Ac trans]
+12.8 +10.3 85 +12 +12 1016.9 1004.7
01 18.06 СВ 1 45 км 9/0
[Ac trans]
+12.6 +11.2 91 +13 +13 1016.5 1004.3
02 18.06 В 8 45 км 9/1 1500 м
[Sc Ac As]
+12.3 +11.4 94 +9 +9 1015.7 1003.5
03 18.06 В 2 45 км 9/1 1500 м
[Sc Ac As Ci sp]
+12.4 +11.0 91 +11 +11 1015.5 1003.3
04 18.06 В 3 45 км 9/3 1500 м
[Cu Sc Ac cast Ci sp]
+12.5 +10.7 89 +11 +11 1014.9 1002.7
05 18.06 СВ 2 8000 м слаб. ливневой дождь, в посл. час гроза 9/5 1350 м
[Cb cap Ac cast Ci sp]
+12.8 +11.5 92 +12 +12 1015.0 1002.8
06 18.06 В 2 8000 м слаб. ливневой дождь {гроза} 10/5 1050 м
[Cb cap Ac cast]
+12.1 +10.8 92 +11 +11 1015.4 1003.2 +12.0 3
07 18.06 В 6 15 км слаб. ливневой дождь 10/1 1050 м
[Cb cap Ac cast]
+12.2 +10.9 92 +10 +10 1013.1 1000.9
08 18.06 В 7 30 км в посл. час ливневой дождь 9/1 1050 м
[Cu med, cong Ac cast]
+13.5 +10.7 83 +11 +12 1013.2 1001.1
09 18.06 В 6 40 км в посл. час ливневой дождь 9/1 750 м
[Cu med, cong Ac cast]
+14.5 +11.2 81 +13 +14 1012.3 1000.2
10 18.06 В 6 30 км в посл. час ливневой дождь 10/1 750 м
[Cu Sc Ac cast]
+14.7 +10.6 76 +13 +15 1012.8 1000.7
11 18.06 ЮВ 5 4000 м ливневой дождь 10/8 750 м
[Cb cap Ac cast]
+14.0 +12.3 89 +12 +13 1014.4 1002.3
12 18.06 СВ 4 12 км слаб. ливневой дождь 9/1 750 м
[Cb cap Ac cast]
+14.5 +13.8 96 +13 +18 1012.6 1000.5 5
13 18.06 СВ 5 20 км в посл. час ливневой дождь 9/1 120 м
[St Ac cast Ci ing]
+15.6 +14.2 91 +14 +19 1011.4 999.4
14 18.06 СВ 5 20 км 9/1 210 м
[St Ac cast Ci sp]
+14.8 +12.9 88 +13 +18 1011.1 999.1
15 18.06 СВ 4 10 км слаб. ливневой дождь 9/1 500 м
[Cb cap Ac cast]
+13.9 +12.8 93 +12 +15 1011.3 999.2
17 18.06 СВ 5 16 км осадки на расстоянии 9/0
[Ac cast]
+13.4 +12.4 94 +11 +12 1010.2 998.1
18 18.06 СВ 4 16 км слаб. ливневой дождь 9/1 1200 м
[Cu med, cong Ac cast Ci sp]
+13.6 +12.6 94 +12 +13 1010.1 998.0 +16.0 7
19 18.06 СВ 4 15 км слаб. ливневой дождь 9/1 1200 м
[Cu med, cong Ac cast Ci ing]
+13.7 +12.8 94 +12 +12 1009.9 997.8
20 18.06 С 3 15 км в посл. час ливневой дождь 9/1 1200 м
[Cu med, cong Ac cast Ci ing]
+13.5 +12.9 96 +12 +12 1009.8 997.7
21 18.06 СВ 3 15 км {ливн. осадки} 9/1 1200 м
[Cu med, cong Ac cast Ci ing]
+13.4 +12.5 94 +12 +12 1009.9 997.8
22 18.06 СВ 3 12 км зарница 9/1 30 м
[Cu med, cong Ac cast Ci ing]
+13.1 +12.9 99 +12 +12 1009.4 997.3
23 18.06 СВ 4 4500 м слаб. ливневой дождь 9/1 30 м
[Frnb Ac cast]
+13.3 +13.1 99 +12 +12 1009.1 997.0

 

Местоположение метеостанции Аэропорт Гернси (Великобритания): широта 49.43 долгота -2.60 высота над уровнем моря 101 м.

В архиве по умолчанию представлена погода в Аэропорту Гернси за последнюю неделю. Архивные данные за месяц целиком и за предыдущие месяцы, начиная с января 2011 года, Вы можете получить, выбрав интересующий диапазон дат из раскрывающегося списка и нажав кнопку "Ввод!".


*Определитесь, кто Вы:
робот инопланетянин человек

Внимание! Время в таблицах - всемирное. Для получения местного времени необходимо прибавить поправку, которая равна 0 ч.

Смотрите также архив погоды в соседних городах и на ближайших метеорологических станциях:

Погода в Аэропорту Джерси (Великобритания) (37 км)
Погода в Кап де ла Аг (Франция) (58 км)
Погода в Картере (Франция) (58 км)
Погода в Вигите ду Аумет (Франция) (83 км)
Погода в Мопертю-сюр-Мере (Франция) (84 км)
Погода в Перрос-Гиреке (Франция) (92 км)
Погода на Пуэнт-дю-Оке (Франция) (98 км)
Погода в Ланьоне (Франция) (99 км)
Погода в Барфлере (Франция) (101 км)
Погода в Сен-Бриё аэропорту (Франция) (102 км)

Пояснения к столбцам:

Ветер - указаны скорость ветра в м/с - средняя за 10 мин, порывы в срок и между сроками (в фигурных скобках) и направление, откуда дует ветер: С - северный, СВ - северо-восточный, В - восточный, ЮВ - юго-восточный, Ю - южный, ЮЗ - юго-западный, З - западный, СЗ - северо-западный.
Видимость - горизонтальная дальность видимости в метрах или километрах. При видимости от 1 до 10 км при отсутствии осадков обычно наблюдается дымка, при ухудшении видимости до 1 км и менее - туман. В сухую погоду видимость может ухудшаться дымом, пылью или мглою.
Явления - указаны атмосферные явления, наблюдавшиеся в срок или в последний час перед сроком; фигурными скобками обозначены явления, наблюдавшиеся между сроками (за 1-3 часа до срока); квадратными скобками обозначены град или гололедные отложения с указанием их диаметра в мм.
Облачность - указаны через наклонную черту общая и нижняя облачность в баллах и высота нижней границы облаков в метрах; квадратными скобками обозначены формы облаков: Ci - перистые, Cs - перисто-слоистые, Cc - перисто-кучевые, Ac - высококучевые, As - высокослоистые, Sc - слоисто-кучевые, Ns - слоисто-дождевые, Cu - кучевые, Cb - кучево-дождевые. Подробнее классификацию облаков см. в Атласе облаков (PDF).
T - Температура воздуха - температура, измеренная на высоте 2 м над землей.
Td - Температура точки росы - температура, при понижении до которой содержащийся в воздухе водяной пар достигнет насыщения.
f - Относительная влажность воздуха - влажноcть воздуха, измеренная на высоте 2 м над землей.
Te - Эффективная температура - температура, которую ощущает одетый по сезону человек в тени. Характеристика душности погоды. При расчете учитывается влияние влажности воздуха и скорости ветра на теплоощущения человека.
Tes - Эффективная температура на солнце - температура, которую ощущает человек, с поправкой на солнечный нагрев. Характеристика знойности погоды. Зависит от высоты солнца над горизонтом, облачности и скорости ветра. Ночью, в пасмурную погоду, а также при ветре 12 м/с и более поправка равна нулю.
P - Атмосферное давление - приведенное к уровню моря атмосферное давление.
Po - Атмосферное давление - измеренное на уровне метеостанции атмосферное давление.
Tmin - Минимальная температура - минимум температуры воздуха на высоте 2 м над землей.
Tmax - Максимальная температура - максимум температуры воздуха на высоте 2 м над землей.
R - Количество осадков - Количество выпавших осадков за период времени, мм. При наведении курсора мыши на число - период времени, за который выпало указанное количество осадков.
R24 - Количество осадков - Количество выпавших осадков за 24 часа, мм.
S - Снежный покров - Высота снежного покрова, см. При наведении курсора мыши на число - состояние снежного покрова и степень покрытия местности в баллах.